BG9VZ-13 Weather Reports


Display with metric or nautical units.
time (UTC)temp
F
wind
direction
speed
MPH
gust
MPH
rain 1hr
in
rain 24hr
in
rain mn
in
humidity
%
barometer
mb
20260507173716 64 0 0.0 0.0 0.00 0.00 0.00 43 774.9
20260507170717 64 0 0.0 0.0 0.00 0.00 0.00 43 775.1
20260507163718 64 0 0.0 0.0 0.00 0.00 0.00 43 775.1
20260507160719 64 0 0.0 0.0 0.00 0.00 0.00 43 775.0
20260507153720 64 0 0.0 0.0 0.00 0.00 0.00 42 774.9
20260507150721 64 0 0.0 0.0 0.00 0.00 0.00 42 774.9
20260507143722 64 0 0.0 0.0 0.00 0.00 0.00 42 774.9
20260507140723 64 0 0.0 0.0 0.00 0.00 0.00 42 774.6
20260507133724 65 0 0.0 0.0 0.00 0.00 0.00 42 774.4
20260507130726 65 0 0.0 0.0 0.00 0.00 0.00 42 774.0
20260507123727 65 0 0.0 0.0 0.00 0.00 0.00 42 773.6
20260507120728 65 0 0.0 0.0 0.00 0.00 0.00 42 773.2
20260507113729 65 0 0.0 0.0 0.00 0.00 0.00 41 772.8
20260507110730 65 0 0.0 0.0 0.00 0.00 0.00 41 772.6
20260507103731 65 0 0.0 0.0 0.00 0.00 0.00 41 772.5
20260507100732 65 0 0.0 0.0 0.00 0.00 0.00 41 772.4
20260507093733 65 0 0.0 0.0 0.00 0.00 0.00 40 772.2
20260507090734 65 0 0.0 0.0 0.00 0.00 0.00 40 772.1
20260507083735 66 0 0.0 0.0 0.00 0.00 0.00 40 772.2
20260507080736 66 0 0.0 0.0 0.00 0.00 0.00 39 772.4
20260507073737 66 0 0.0 0.0 0.00 0.00 0.00 38 772.8
20260507070738 66 0 0.0 0.0 0.00 0.00 0.00 38 773.2
20260507063739 66 0 0.0 0.0 0.00 0.00 0.00 38 773.7
20260507060740 66 0 0.0 0.0 0.00 0.00 0.00 38 773.9
20260507053741 66 0 0.0 0.0 0.00 0.00 0.00 37 774.3
20260507050741 65 0 0.0 0.0 0.00 0.00 0.00 37 774.8
20260507043743 65 0 0.0 0.0 0.00 0.00 0.00 35 775.3
20260507040744 64 0 0.0 0.0 0.00 0.00 0.00 36 775.7
20260507033745 65 0 0.0 0.0 0.00 0.00 0.00 38 776.1
20260507030746 65 0 0.0 0.0 0.00 0.00 0.00 39 776.4
20260507023748 64 0 0.0 0.0 0.00 0.00 0.00 39 776.5
20260507020749 64 0 0.0 0.0 0.00 0.00 0.00 42 776.6
20260507013751 64 0 0.0 0.0 0.00 0.00 0.00 42 776.7
20260507010751 64 0 0.0 0.0 0.00 0.00 0.00 42 776.8
20260507003753 64 0 0.0 0.0 0.00 0.00 0.00 43 776.7
20260507000754 64 0 0.0 0.0 0.00 0.00 0.00 43 776.7
20260506233755 64 0 0.0 0.0 0.00 0.00 0.00 43 776.6
20260506230757 64 0 0.0 0.0 0.00 0.00 0.00 43 776.2
20260506223758 64 0 0.0 0.0 0.00 0.00 0.00 43 776.1
20260506220800 64 0 0.0 0.0 0.00 0.00 0.00 43 776.0
20260506213801 64 0 0.0 0.0 0.00 0.00 0.00 43 775.9
20260506210802 64 0 0.0 0.0 0.00 0.00 0.00 43 776.0
20260506203804 64 0 0.0 0.0 0.00 0.00 0.00 43 775.7
20260506200805 64 0 0.0 0.0 0.00 0.00 0.00 43 775.6
20260506193806 64 0 0.0 0.0 0.00 0.00 0.00 43 775.6
20260506190807 64 0 0.0 0.0 0.00 0.00 0.00 43 775.6
20260506183808 64 0 0.0 0.0 0.00 0.00 0.00 43 775.6
20260506180810 64 0 0.0 0.0 0.00 0.00 0.00 43 775.7